Voltar ao catálogo

CZ-6A DEB

AtivoPO
NORAD 64640·DEBRIS·🇨🇳 China

Lançado Aug 6, 2024 de Taiyuan Satellite Launch Center

Loading…

Próximas Passagens (próximas 24 horas)

TLE

AtualizadoSource: Space-Track

Época: Sep 14, 2026, 11:32 UTC

1 64640U 24140AEE 26257.48124017  .00001699  00000-0  72604-3 0  9997
2 64640  89.0008 264.7438 0043138 246.8733 112.7910 14.24116024103159

Acompanhe CZ-6A DEB em tempo real com AllMySat

Download on the App Store